Satellite: DTUSAT-2 Catalog number: 40030 Epoch time: 14317.25833909 Element set: 424 Inclination: 097.9647 deg RA of node: 212.0367 deg Eccentricity: 0.0012821 Arg of perigee: 156.9720 deg Mean anomaly: 203.2046 deg Mean motion: 14.85468191 rev/day Decay rate: 3.708e-05 rev/day^2 Epoch rev: 2171 Checksum: 283
Satellite: ANTELSAT Catalog number: 40034 Epoch time: 14317.26018106 Element set: 432 Inclination: 097.9623 deg RA of node: 208.8759 deg Eccentricity: 0.0062555 Arg of perigee: 090.3558 deg Mean anomaly: 270.4853 deg Mean motion: 14.71673049 rev/day Decay rate: 2.733e-05 rev/day^2 Epoch rev: 2152 Checksum: 292
/EX SB KEPS @ AMSAT $ORB14317.W Orbital Elements 14317.WEATHER
HR AMSAT ORBITAL ELEMENTS FOR WEATHER SATELLITES FROM WA5QGD FORT WORTH,TX November 13, 2014 BID: ORB14317.W TO ALL RADIO AMATEURS BT
Satellite: MET-2/21 Catalog number: 22782 Epoch time: 14316.82501219 Element set: 222 Inclination: 082.5516 deg RA of node: 055.3634 deg Eccentricity: 0.0022165 Arg of perigee: 204.9276 deg Mean anomaly: 305.1863 deg Mean motion: 13.83752624 rev/day Decay rate: 6.1e-07 rev/day^2 Epoch rev: 7067 Checksum: 279
Satellite: OKEAN-4 Catalog number: 23317 Epoch time: 14316.79701999 Element set: 707 Inclination: 082.5372 deg RA of node: 288.5625 deg Eccentricity: 0.0019317 Arg of perigee: 331.5674 deg Mean anomaly: 118.6792 deg Mean motion: 14.85916069 rev/day Decay rate: 2.304e-05 rev/day^2 Epoch rev: 8517 Checksum: 335
Satellite: NOAA-14 Catalog number: 23455 Epoch time: 14317.23780429 Element set: 977 Inclination: 098.7704 deg RA of node: 037.9679 deg Eccentricity: 0.0008809 Arg of perigee: 340.9885 deg Mean anomaly: 078.0271 deg Mean motion: 14.13999952 rev/day Decay rate: 3.0e-07 rev/day^2 Epoch rev: 2501 Checksum: 335
Satellite: NOAA-15 Catalog number: 25338 Epoch time: 14317.14710765 Element set: 417 Inclination: 098.7625 deg RA of node: 310.7955 deg Eccentricity: 0.0011651 Arg of perigee: 078.3175 deg Mean anomaly: 054.4629 deg Mean motion: 14.25503440 rev/day Decay rate: 2.46e-06 rev/day^2 Epoch rev: 85806 Checksum: 305
Satellite: RESURS Catalog number: 25394 Epoch time: 14316.86077231 Element set: 806 Inclination: 098.4347 deg RA of node: 275.1217 deg Eccentricity: 0.0001819 Arg of perigee: 148.5405 deg Mean anomaly: 263.9675 deg Mean motion: 14.24413756 rev/day Decay rate: 8.2e-07 rev/day^2 Epoch rev: 84948 Checksum: 320
Satellite: FENGYUN1 Catalog number: 25730 Epoch time: 14315.85697785 Element set: 294 Inclination: 098.9253 deg RA of node: 276.1494 deg Eccentricity: 0.0022913 Arg of perigee: 051.7473 deg Mean anomaly: 000.7319 deg Mean motion: 14.12403287 rev/day Decay rate: 3.330e-05 rev/day^2 Epoch rev: 79836 Checksum: 317
Satellite: OKEAN-0 Catalog number: 25860 Epoch time: 14316.83458453 Element set: 414 Inclination: 098.0642 deg RA of node: 280.0002 deg Eccentricity: 0.0001000 Arg of perigee: 092.9388 deg Mean anomaly: 324.0820 deg Mean motion: 14.75546653 rev/day Decay rate: 1.030e-05 rev/day^2 Epoch rev: 82407 Checksum: 265
Satellite: NOAA-16 Catalog number: 26536 Epoch time: 14317.20486520 Element set: 915 Inclination: 098.9731 deg RA of node: 018.0799 deg Eccentricity: 0.0011499 Arg of perigee: 122.1810 deg Mean anomaly: 238.0478 deg Mean motion: 14.13052693 rev/day Decay rate: 1.02e-06 rev/day^2 Epoch rev: 72915 Checksum: 300
Satellite: NOAA-17 Catalog number: 27453 Epoch time: 14317.14417342 Element set: 804 Inclination: 098.3233 deg RA of node: 309.0802 deg Eccentricity: 0.0012926 Arg of perigee: 097.8404 deg Mean anomaly: 262.4244 deg Mean motion: 14.24811497 rev/day Decay rate: 2.49e-06 rev/day^2 Epoch rev: 64389 Checksum: 305
Satellite: NOAA-18 Catalog number: 28654 Epoch time: 14317.19914968 Element set: 329 Inclination: 099.1653 deg RA of node: 299.8179 deg Eccentricity: 0.0014040 Arg of perigee: 202.6406 deg Mean anomaly: 285.8035 deg Mean motion: 14.12096375 rev/day Decay rate: 1.02e-06 rev/day^2 Epoch rev: 48859 Checksum: 334
Satellite: NOAA-19 Catalog number: 33591 Epoch time: 14317.11917203 Element set: 460 Inclination: 098.9624 deg RA of node: 261.8233 deg Eccentricity: 0.0014931 Arg of perigee: 061.7798 deg Mean anomaly: 069.1268 deg Mean motion: 14.11802271 rev/day Decay rate: 3.37e-06 rev/day^2 Epoch rev: 29700 Checksum: 300
/EX SB KEPS @ AMSAT $ORB14317.M Orbital Elements 14317.MISC
HR AMSAT ORBITAL ELEMENTS FOR MANNED AND MISCELLANEOUS SATELLITES FROM WA5QGD FORT WORTH,TX November 13, 2014 BID: ORB14317.M TO ALL RADIO AMATEURS BT
Satellite: HUBBLE Catalog number: 20580 Epoch time: 14315.80850291 Element set: 154 Inclination: 028.4691 deg RA of node: 146.3075 deg Eccentricity: 0.0003521 Arg of perigee: 063.0347 deg Mean anomaly: 045.4200 deg Mean motion: 15.06135453 rev/day Decay rate: 3.352e-05 rev/day^2 Epoch rev: 14699 Checksum: 260
Satellite: ISS Catalog number: 25544 Epoch time: 14316.99401744 Element set: 405 Inclination: 051.6389 deg RA of node: 081.8996 deg Eccentricity: 0.0007886 Arg of perigee: 022.5816 deg Mean anomaly: 085.1772 deg Mean motion: 15.50927485 rev/day Decay rate: 1.7511e-04 rev/day^2 Epoch rev: 91441 Checksum: 325
Satellite: CO-58 Catalog number: 28895 Epoch time: 14316.79372520 Element set: 920 Inclination: 097.8236 deg RA of node: 150.9013 deg Eccentricity: 0.0016075 Arg of perigee: 260.2665 deg Mean anomaly: 099.6722 deg Mean motion: 14.62189526 rev/day Decay rate: 1.218e-05 rev/day^2 Epoch rev: 48196 Checksum: 334
Satellite: FALCON Catalog number: 30776 Epoch time: 14316.94727741 Element set: 3 Inclination: 035.4289 deg RA of node: 271.3595 deg Eccentricity: 0.0003327 Arg of perigee: 213.2101 deg Mean anomaly: 191.6420 deg Mean motion: 15.18825282 rev/day Decay rate: 1.2672e-04 rev/day^2 Epoch rev: 42333 Checksum: 275
Satellite: MAST Catalog number: 31126 Epoch time: 14316.84465282 Element set: 201 Inclination: 097.9328 deg RA of node: 290.1462 deg Eccentricity: 0.0090403 Arg of perigee: 250.2704 deg Mean anomaly: 176.9463 deg Mean motion: 14.55571469 rev/day Decay rate: 8.92e-06 rev/day^2 Epoch rev: 40201 Checksum: 286
Satellite: CAPE1 Catalog number: 31130 Epoch time: 14316.86401551 Element set: 207 Inclination: 097.9542 deg RA of node: 287.0124 deg Eccentricity: 0.0096800 Arg of perigee: 269.4316 deg Mean anomaly: 089.5790 deg Mean motion: 14.54839341 rev/day Decay rate: 1.501e-05 rev/day^2 Epoch rev: 40142 Checksum: 283
Satellite: COMPASS Catalog number: 32787 Epoch time: 14316.88568879 Element set: 98 Inclination: 097.6836 deg RA of node: 006.0824 deg Eccentricity: 0.0014680 Arg of perigee: 054.8492 deg Mean anomaly: 305.4098 deg Mean motion: 14.88863134 rev/day Decay rate: 4.959e-05 rev/day^2 Epoch rev: 35430 Checksum: 353
Satellite: AAUSAT2 Catalog number: 32788 Epoch time: 14316.68085438 Element set: 85 Inclination: 097.6844 deg RA of node: 007.0596 deg Eccentricity: 0.0014055 Arg of perigee: 053.1108 deg Mean anomaly: 307.1396 deg Mean motion: 14.89676547 rev/day Decay rate: 5.303e-05 rev/day^2 Epoch rev: 35434 Checksum: 322
Satellite: DO-64 Catalog number: 32789 Epoch time: 14316.76145949 Element set: 130 Inclination: 097.7043 deg RA of node: 015.1637 deg Eccentricity: 0.0012114 Arg of perigee: 035.6067 deg Mean anomaly: 090.0334 deg Mean motion: 14.95478766 rev/day Decay rate: 8.661e-05 rev/day^2 Epoch rev: 35468 Checksum: 324
Satellite: CO-66 Catalog number: 32791 Epoch time: 14316.78172656 Element set: 80 Inclination: 097.6827 deg RA of node: 004.4199 deg Eccentricity: 0.0015356 Arg of perigee: 058.7568 deg Mean anomaly: 301.5150 deg Mean motion: 14.87324306 rev/day Decay rate: 3.118e-05 rev/day^2 Epoch rev: 35413 Checksum: 315
Satellite: RS-30 Catalog number: 32953 Epoch time: 14317.37213612 Element set: 461 Inclination: 082.4987 deg RA of node: 108.4534 deg Eccentricity: 0.0018885 Arg of perigee: 189.5249 deg Mean anomaly: 170.5483 deg Mean motion: 12.43052463 rev/day Decay rate: 1.0e-07 rev/day^2 Epoch rev: 29379 Checksum: 308
Satellite: METEOR-M Catalog number: 35865 Epoch time: 14317.19198174 Element set: 69 Inclination: 098.5315 deg RA of node: 359.9472 deg Eccentricity: 0.0003157 Arg of perigee: 036.7116 deg Mean anomaly: 323.4283 deg Mean motion: 14.21949767 rev/day Decay rate: 1.85e-06 rev/day^2 Epoch rev: 26751 Checksum: 328
Satellite: RS-38 Catalog number: 35869 Epoch time: 14317.26741949 Element set: 974 Inclination: 098.5236 deg RA of node: 359.7510 deg Eccentricity: 0.0005200 Arg of perigee: 028.5803 deg Mean anomaly: 331.5662 deg Mean motion: 14.22242245 rev/day Decay rate: 1.20e-06 rev/day^2 Epoch rev: 26756 Checksum: 309
Satellite: JUGNU Catalog number: 37839 Epoch time: 14316.69647541 Element set: 732 Inclination: 019.9625 deg RA of node: 074.8269 deg Eccentricity: 0.0018756 Arg of perigee: 180.7094 deg Mean anomaly: 313.4533 deg Mean motion: 14.12368395 rev/day Decay rate: 5.07e-06 rev/day^2 Epoch rev: 15957 Checksum: 335
Satellite: SRMSAT Catalog number: 37841 Epoch time: 14316.76000361 Element set: 736 Inclination: 019.9724 deg RA of node: 096.7514 deg Eccentricity: 0.0011785 Arg of perigee: 114.4211 deg Mean anomaly: 026.4729 deg Mean motion: 14.10398651 rev/day Decay rate: 4.47e-06 rev/day^2 Epoch rev: 15935 Checksum: 292
Satellite: RAX-2 Catalog number: 37853 Epoch time: 14316.86056448 Element set: 961 Inclination: 101.7028 deg RA of node: 057.5678 deg Eccentricity: 0.0209667 Arg of perigee: 346.0592 deg Mean anomaly: 123.7477 deg Mean motion: 14.91601210 rev/day Decay rate: 6.898e-05 rev/day^2 Epoch rev: 16480 Checksum: 331
Satellite: AUBIESAT Catalog number: 37854 Epoch time: 14316.84132488 Element set: 958 Inclination: 101.7070 deg RA of node: 059.9554 deg Eccentricity: 0.0206791 Arg of perigee: 342.3261 deg Mean anomaly: 134.4081 deg Mean motion: 14.93168034 rev/day Decay rate: 8.702e-05 rev/day^2 Epoch rev: 16487 Checksum: 312
